Location: Crewe
(53.0817°N, 2.4572°W)
Time: 04:11:08
(UTC+00:00)

Envisat - Visible Passes

Search period start: 06 December 2019 00:00
Search period end: 16 December 2019 00:00
Orbit: 764 x 766 km, 98.1° (Epoch: 05 December)

Date Brightness Start Highest point End Pass type
(mag) Time Alt. Az. Time Alt. Az. Time Alt. Az.
06 Dec 6.1 05:30:20 10° ENE 05:32:38 13° E 05:34:56 10° ESE visible
06 Dec 3.3 07:07:28 10° NNE 07:12:35 74° ESE 07:17:39 10° S visible
06 Dec 3.7 16:50:01 10° ESE 16:54:29 32° ENE 16:58:58 10° N visible
06 Dec 4.0 18:28:28 10° S 18:33:22 48° W 18:38:19 10° NNW visible
07 Dec 4.6 06:30:53 10° NNE 06:35:39 39° E 06:40:23 10° SSE visible
07 Dec 2.9 17:51:24 10° SSE 17:56:29 89° ENE 18:01:37 10° NNW visible
07 Dec 5.8 19:33:08 10° SW 19:36:15 16° W 19:39:24 10° NW visible
08 Dec 5.7 05:54:43 10° NE 05:58:31 21° E 06:02:17 10° SE visible
08 Dec 3.2 17:14:57 10° SE 17:19:48 48° ENE 17:24:42 10° N visible
08 Dec 4.8 18:54:35 10° SSW 18:59:03 30° W 19:03:33 10° NNW visible
09 Dec 6.4 05:20:22 10° ENE 05:21:10 10° E 05:21:58 10° E visible
09 Dec 3.6 06:56:13 10° NNE 07:01:17 61° ESE 07:06:18 10° S visible
09 Dec 3.9 16:39:04 10° ESE 16:43:18 27° ENE 16:47:33 10° N visible
09 Dec 3.6 18:17:02 10° S 18:22:02 58° W 18:27:05 10° NNW visible
10 Dec 4.9 06:19:43 10° NNE 06:24:17 32° E 06:28:48 10° SSE visible
10 Dec 2.9 17:40:09 10° SSE 17:45:13 75° ENE 17:50:19 10° NNW visible
10 Dec 5.5 19:21:10 10° SW 19:24:50 20° W 19:28:30 10° NW visible
11 Dec 5.9 05:43:47 10° NE 05:47:05 17° E 05:50:22 10° SE visible
11 Dec 3.0 07:21:41 10° NNE 07:26:49 86° WNW 07:31:54 10° SSW visible
11 Dec 3.4 17:03:52 10° SE 17:08:35 40° ENE 17:13:20 10° N visible
11 Dec 4.5 18:42:59 10° SSW 18:47:40 37° W 18:52:24 10° NNW visible
12 Dec 4.0 06:44:58 10° NNE 06:49:57 50° E 06:54:53 10° S visible
12 Dec 4.0 16:28:10 10° ESE 16:32:08 23° ENE 16:36:06 10° N visible
12 Dec 3.3 18:05:39 10° S 18:10:43 71° WSW 18:15:50 10° NNW visible
12 Dec 6.1 19:48:41 10° WSW 19:50:43 12° W 19:52:44 10° WNW visible
13 Dec 5.3 06:08:37 10° NE 06:12:54 27° E 06:17:09 10° SSE visible
13 Dec 3.0 17:28:57 10° SSE 17:33:57 62° ENE 17:39:00 10° N visible
13 Dec 5.3 19:09:21 10° SW 19:13:25 24° W 19:17:30 10° NW visible
14 Dec 6.0 05:33:00 10° NE 05:35:38 14° E 05:38:15 10° ESE visible
14 Dec 3.2 07:10:24 10° NNE 07:15:31 80° ESE 07:20:37 10° SSW visible
14 Dec 3.6 16:52:50 10° SE 16:57:22 34° ENE 17:01:56 10° N visible
14 Dec 4.1 18:31:28 10° S 18:36:20 44° W 18:41:13 10° NNW visible
15 Dec 4.4 06:33:46 10° NNE 06:38:36 41° E 06:43:24 10° SSE visible
15 Dec 3.0 17:54:20 10° SSE 17:59:25 85° WSW 18:04:33 10° NNW visible
15 Dec 5.9 19:36:22 10° WSW 19:39:15 15° W 19:42:09 10° NW visible
